Location: ?????????
(54.7630°N, 39.4991°E)
Time: 19:26:53
(UTC+00:00)

ATLAS 2AS CENTAUR R/B - Pass Details

Date: 14 April 2026
Orbit: 1052 x 1158 km, 63.7° (Epoch: 19 May)

Event Time Altitude Azimuth Distance (km) Brightness Sun altitude
Exits shadow 22:08:26 33° 138° (SE) 1,724 3.5 -24.8°
Maximum altitude 22:09:32 35° 119° (ESE) 1,664 3.5 -24.8°
Drops below altitude 10° 22:15:35 10° 57° (ENE) 2,894 5.6 -24.6°
Sets 22:18:26 0° 49° (NE) 3,844 6.5 -24.5°
